Starlink 33672

operational
NORAD ID: 63326 Int'l Des: 2025-057 Owner: SPXS Country: US Constellation: starlink
LEOCIRCULAR

关于 Starlink 33672

正在加载描述...

实时位置

正在加载3D地球...

即将过境

高度历史

Altitude vs Time

uPlot chart will show altitude changes over time

两行轨道根数

1 63326U 25057V 25351.45601216 .00022348 00000-0 81907-3 0 9997
2 63326 43.0014 135.0101 0000573 300.0792 60.0003 15.27583441 43209
Epoch: Dec 17, 2025 • Age: 16 hours

当前状态

高度 482.2 km
速度 7.63 km/s
星下点 2.40°N, 7.12°E
发射日期 Mar 18, 2025
运行时间 0.7 years
类型 internet

技术详情

分类 Payload
质量 575.00 kg
干质量 530.00 kg
总质量 575.00 kg
长度 0.30 m
直径 4.10 m
跨度 29.00 m
形状 Box + pan
制造商 SPXS
平台类型 Starlink V2MO
阶段状态 In Orbit
所有者/国家 SPXS/US

大型星座

Loading constellations...